| time (UTC) | temp C | wind direction | speed KPH | gust KPH | rain 1hr cm | rain 24hr cm | rain mn cm | humidity % | barometer mb |
| 20260507001135 | 8 | 223 | 4.8 | 11.3 | 0.00 | 0.00 | 0.05 | 79 | 1009.2 |
| 20260507000636 | 8 | 186 | 4.8 | 11.3 | 0.00 | 0.00 | 0.05 | 79 | 1009.1 |
| 20260507000135 | 8 | 215 | 6.4 | 11.3 | 0.00 | 0.00 | 0.05 | 79 | 1009.1 |
| 20260506235635 | 8 | 175 | 6.4 | 12.9 | 0.00 | 0.00 | 0.05 | 78 | 1009.0 |
| 20260506235412 | 8 | 191 | 8.0 | 14.5 | 0.00 | 0.00 | 0.05 | 77 | 1009.0 |
| 20260506235301 | 8 | 161 | 6.4 | 14.5 | 0.00 | 0.00 | 0.05 | 77 | 1009.0 |
| 20260506234135 | 8 | 192 | 6.4 | 25.7 | 0.00 | 0.00 | 0.05 | 77 | 1008.9 |
| 20260506233634 | 9 | 207 | 6.4 | 25.7 | 0.00 | 0.00 | 0.05 | 77 | 1008.9 |
| 20260506233355 | 9 | 203 | 6.4 | 16.1 | 0.00 | 0.00 | 0.05 | 77 | 1008.9 |
| 20260506233258 | 9 | 207 | 6.4 | 16.1 | 0.00 | 0.00 | 0.05 | 77 | 1008.9 |
| 20260506232148 | 9 | 200 | 4.8 | 17.7 | 0.00 | 0.00 | 0.05 | 77 | 1008.8 |
| 20260506231634 | 9 | 207 | 4.8 | 17.7 | 0.00 | 0.00 | 0.05 | 77 | 1008.7 |
| 20260506231134 | 9 | 215 | 4.8 | 11.3 | 0.00 | 0.00 | 0.05 | 77 | 1008.7 |
| 20260506231034 | 9 | 204 | 4.8 | 9.7 | 0.00 | 0.00 | 0.05 | 77 | 1008.7 |
| 20260506230133 | 9 | 200 | 4.8 | 12.9 | 0.00 | 0.00 | 0.05 | 77 | 1008.7 |
| 20260506225633 | 9 | 196 | 6.4 | 14.5 | 0.00 | 0.00 | 0.05 | 76 | 1008.8 |
| 20260506225134 | 9 | 206 | 6.4 | 14.5 | 0.00 | 0.00 | 0.05 | 76 | 1008.9 |
| 20260506224636 | 9 | 208 | 6.4 | 14.5 | 0.00 | 0.00 | 0.05 | 76 | 1008.9 |
| 20260506224138 | 9 | 221 | 6.4 | 14.5 | 0.00 | 0.00 | 0.05 | 75 | 1008.9 |
| 20260506223636 | 9 | 192 | 6.4 | 14.5 | 0.00 | 0.00 | 0.05 | 76 | 1008.9 |
| 20260506223133 | 9 | 170 | 6.4 | 20.9 | 0.00 | 0.00 | 0.05 | 76 | 1008.9 |
| 20260506222632 | 9 | 208 | 6.4 | 20.9 | 0.00 | 0.00 | 0.05 | 75 | 1008.8 |
| 20260506222132 | 9 | 207 | 6.4 | 14.5 | 0.00 | 0.00 | 0.05 | 74 | 1008.9 |
| 20260506221632 | 9 | 190 | 6.4 | 17.7 | 0.00 | 0.00 | 0.05 | 75 | 1008.8 |
| 20260506221500 | 9 | 220 | 6.4 | 19.3 | 0.00 | 0.00 | 0.05 | 74 | 1008.8 |
| 20260506221001 | 10 | 217 | 6.4 | 19.3 | 0.00 | 0.00 | 0.05 | 74 | 1008.8 |
| 20260506220135 | 10 | 209 | 6.4 | 14.5 | 0.00 | 0.00 | 0.05 | 74 | 1008.9 |
| 20260506215633 | 10 | 178 | 4.8 | 11.3 | 0.00 | 0.00 | 0.05 | 75 | 1008.8 |
| 20260506215348 | 10 | 209 | 6.4 | 17.7 | 0.00 | 0.00 | 0.05 | 73 | 1008.9 |
| 20260506215253 | 10 | 204 | 6.4 | 17.7 | 0.00 | 0.00 | 0.05 | 74 | 1008.9 |
| 20260506214134 | 10 | 209 | 8.0 | 16.1 | 0.00 | 0.00 | 0.05 | 73 | 1008.9 |
| 20260506214019 | 10 | 190 | 8.0 | 16.1 | 0.00 | 0.00 | 0.05 | 71 | 1008.7 |
| 20260506213133 | 10 | 213 | 6.4 | 14.5 | 0.00 | 0.00 | 0.05 | 73 | 1008.8 |
| 20260506212633 | 10 | 165 | 6.4 | 14.5 | 0.00 | 0.00 | 0.05 | 73 | 1008.8 |
| 20260506212353 | 10 | 148 | 6.4 | 16.1 | 0.00 | 0.00 | 0.05 | 72 | 1008.9 |
| 20260506212300 | 10 | 210 | 6.4 | 16.1 | 0.00 | 0.00 | 0.05 | 71 | 1008.9 |
| 20260506211132 | 10 | 174 | 6.4 | 11.3 | 0.00 | 0.00 | 0.05 | 71 | 1009.0 |
| 20260506210634 | 10 | 186 | 6.4 | 12.9 | 0.00 | 0.00 | 0.05 | 73 | 1008.9 |
| 20260506210133 | 10 | 180 | 6.4 | 12.9 | 0.00 | 0.00 | 0.05 | 73 | 1008.8 |
| 20260506210009 | 10 | 182 | 6.4 | 12.9 | 0.00 | 0.00 | 0.05 | 71 | 1008.8 |
| 20260506205132 | 11 | 205 | 4.8 | 12.9 | 0.00 | 0.00 | 0.05 | 72 | 1008.7 |
| 20260506204633 | 11 | 184 | 4.8 | 11.3 | 0.00 | 0.00 | 0.05 | 71 | 1008.7 |
| 20260506204132 | 11 | 208 | 4.8 | 11.3 | 0.00 | 0.00 | 0.05 | 69 | 1008.8 |
| 20260506203927 | 11 | 197 | 6.4 | 12.9 | 0.00 | 0.00 | 0.05 | 72 | 1008.9 |
| 20260506203823 | 11 | 176 | 6.4 | 12.9 | 0.00 | 0.00 | 0.05 | 70 | 1008.8 |
| 20260506202634 | 11 | 235 | 6.4 | 12.9 | 0.00 | 0.00 | 0.05 | 73 | 1008.9 |
| 20260506202134 | 10 | 196 | 4.8 | 12.9 | 0.00 | 0.00 | 0.05 | 73 | 1009.1 |
| 20260506201633 | 10 | 221 | 4.8 | 11.3 | 0.00 | 0.00 | 0.05 | 74 | 1009.1 |
| 20260506201134 | 10 | 252 | 4.8 | 14.5 | 0.00 | 0.00 | 0.05 | 76 | 1009.2 |
| 20260506200630 | 10 | 239 | 4.8 | 14.5 | 0.00 | 0.00 | 0.05 | 76 | 1009.2 |
| 20260506200130 | 10 | 234 | 4.8 | 9.7 | 0.00 | 0.00 | 0.05 | 76 | 1009.2 |
| 20260506195848 | 9 | 228 | 4.8 | 12.9 | 0.00 | 0.00 | 0.05 | 76 | 1009.2 |
| 20260506195143 | 9 | 217 | 6.4 | 14.5 | 0.00 | 0.00 | 0.05 | 76 | 1009.2 |
| 20260506194630 | 9 | 149 | 4.8 | 14.5 | 0.00 | 0.00 | 0.05 | 76 | 1009.2 |
| 20260506194348 | 9 | 183 | 4.8 | 17.7 | 0.00 | 0.00 | 0.05 | 77 | 1009.3 |
| 20260506194255 | 9 | 165 | 4.8 | 11.3 | 0.00 | 0.00 | 0.05 | 77 | 1009.3 |
| 20260506193147 | 9 | 196 | 6.4 | 17.7 | 0.00 | 0.00 | 0.05 | 75 | 1009.4 |
| 20260506192632 | 9 | 150 | 6.4 | 12.9 | 0.00 | 0.00 | 0.05 | 76 | 1009.2 |
| 20260506192129 | 9 | 0 | 4.8 | 14.5 | 0.00 | 0.00 | 0.05 | 78 | 1009.2 |
| 20260506191624 | 9 | 0 | 4.8 | 14.5 | 0.00 | 0.00 | 0.05 | 78 | 1009.4 |
| 20260506191125 | 8 | 0 | 4.8 | 16.1 | 0.00 | 0.00 | 0.05 | 78 | 1009.5 |
| 20260506190959 | 8 | 0 | 4.8 | 16.1 | 0.00 | 0.00 | 0.05 | 79 | 1009.4 |
| 20260506190126 | 8 | 189 | 4.8 | 12.9 | 0.00 | 0.00 | 0.05 | 78 | 1009.5 |
| 20260506185959 | 8 | 200 | 4.8 | 9.7 | 0.00 | 0.00 | 0.05 | 79 | 1009.6 |
| 20260506185458 | 8 | 180 | 3.2 | 9.7 | 0.00 | 0.00 | 0.05 | 79 | 1009.5 |
| 20260506184625 | 8 | 211 | 3.2 | 8.0 | 0.00 | 0.00 | 0.05 | 78 | 1009.5 |
| 20260506184128 | 8 | 175 | 4.8 | 12.9 | 0.00 | 0.00 | 0.05 | 79 | 1009.5 |
| 20260506184011 | 8 | 205 | 3.2 | 12.9 | 0.00 | 0.00 | 0.05 | 79 | 1009.5 |
| 20260506183125 | 8 | 209 | 3.2 | 11.3 | 0.00 | 0.00 | 0.05 | 80 | 1009.7 |
| 20260506183009 | 8 | 180 | 3.2 | 12.9 | 0.00 | 0.00 | 0.05 | 80 | 1009.7 |
| 20260506182125 | 8 | 182 | 4.8 | 12.9 | 0.00 | 0.00 | 0.05 | 80 | 1009.6 |
| 20260506181627 | 8 | 177 | 3.2 | 9.7 | 0.00 | 0.00 | 0.05 | 79 | 1009.7 |
| 20260506181121 | 8 | 196 | 3.2 | 9.7 | 0.00 | 0.00 | 0.05 | 79 | 1009.7 |
| 20260506180604 | 8 | 200 | 3.2 | 9.7 | 0.00 | 0.00 | 0.05 | 79 | 1009.8 |
| 20260506180108 | 8 | 0 | 4.8 | 12.9 | 0.00 | 0.00 | 0.05 | 78 | 1009.8 |
| 20260506175604 | 8 | 0 | 4.8 | 12.9 | 0.00 | 0.00 | 0.05 | 79 | 1009.8 |
| 20260506175102 | 8 | 0 | 4.8 | 12.9 | 0.00 | 0.00 | 0.05 | 79 | 1009.7 |
| 20260506174602 | 8 | 0 | 4.8 | 9.7 | 0.00 | 0.00 | 0.05 | 80 | 1009.8 |
| 20260506174103 | 8 | 200 | 4.8 | 9.7 | 0.00 | 0.00 | 0.05 | 81 | 1009.7 |
| 20260506173604 | 8 | 171 | 3.2 | 9.7 | 0.00 | 0.00 | 0.05 | 81 | 1009.6 |
| 20260506173445 | 8 | 152 | 3.2 | 9.7 | 0.00 | 0.00 | 0.05 | 81 | 1009.5 |
| 20260506172605 | 8 | 176 | 4.8 | 12.9 | 0.00 | 0.00 | 0.05 | 81 | 1009.8 |
| 20260506172337 | 8 | 119 | 4.8 | 9.7 | 0.00 | 0.00 | 0.05 | 82 | 1009.4 |
| 20260506172233 | 8 | 206 | 4.8 | 12.9 | 0.00 | 0.00 | 0.05 | 81 | 1009.7 |
| 20260506171444 | 8 | 0 | 3.2 | 9.7 | 0.00 | 0.00 | 0.05 | 82 | 1009.6 |
| 20260506170601 | 8 | 0 | 3.2 | 9.7 | 0.00 | 0.00 | 0.05 | 82 | 1009.6 |
| 20260506165604 | 8 | 181 | 3.2 | 9.7 | 0.00 | 0.00 | 0.05 | 82 | 1009.7 |
| 20260506165213 | 8 | 261 | 4.8 | 16.1 | 0.00 | 0.00 | 0.05 | 82 | 1009.8 |
| 20260506164726 | 8 | 198 | 4.8 | 16.1 | 0.00 | 0.00 | 0.05 | 82 | 1009.8 |
| 20260506163944 | 8 | 163 | 6.4 | 16.1 | 0.00 | 0.00 | 0.05 | 85 | 1009.8 |
| 20260506163100 | 8 | 246 | 4.8 | 9.7 | 0.00 | 0.00 | 0.05 | 85 | 1009.9 |
| 20260506162601 | 7 | 163 | 4.8 | 11.3 | 0.00 | 0.00 | 0.05 | 85 | 1009.8 |
| 20260506162103 | 7 | 192 | 4.8 | 11.3 | 0.00 | 0.00 | 0.05 | 85 | 1010.0 |
| 20260506161602 | 7 | 212 | 4.8 | 12.9 | 0.00 | 0.00 | 0.05 | 85 | 1010.2 |
| 20260506161102 | 7 | 190 | 4.8 | 12.9 | 0.00 | 0.00 | 0.05 | 85 | 1010.2 |
| 20260506160601 | 7 | 209 | 4.8 | 11.3 | 0.00 | 0.00 | 0.05 | 85 | 1010.2 |
| 20260506160448 | 7 | 225 | 4.8 | 9.7 | 0.00 | 0.00 | 0.05 | 85 | 1010.2 |
| 20260506155600 | 7 | 186 | 3.2 | 9.7 | 0.00 | 0.00 | 0.05 | 85 | 1010.2 |
| 20260506155103 | 7 | 191 | 3.2 | 11.3 | 0.00 | 0.00 | 0.05 | 85 | 1010.3 |
| 20260506154600 | 7 | 192 | 4.8 | 12.9 | 0.00 | 0.00 | 0.05 | 86 | 1010.3 |
| 20260506154101 | 7 | 221 | 6.4 | 12.9 | 0.00 | 0.00 | 0.05 | 86 | 1010.3 |
| 20260506153603 | 7 | 200 | 6.4 | 14.5 | 0.00 | 0.00 | 0.05 | 87 | 1010.2 |
| 20260506153056 | 7 | 184 | 4.8 | 14.5 | 0.00 | 0.00 | 0.05 | 87 | 1010.1 |
| 20260506152552 | 7 | 176 | 4.8 | 11.3 | 0.00 | 0.00 | 0.05 | 87 | 1010.3 |
| 20260506152045 | 7 | 186 | 6.4 | 9.7 | 0.00 | 0.00 | 0.05 | 88 | 1010.3 |
| 20260506151544 | 7 | 185 | 4.8 | 9.7 | 0.00 | 0.00 | 0.05 | 88 | 1010.2 |
| 20260506151042 | 7 | 185 | 4.8 | 16.1 | 0.00 | 0.00 | 0.05 | 89 | 1010.3 |
| 20260506150544 | 7 | 167 | 4.8 | 16.1 | 0.00 | 0.00 | 0.05 | 89 | 1010.4 |
| 20260506150042 | 7 | 185 | 4.8 | 11.3 | 0.03 | 0.00 | 0.05 | 90 | 1010.4 |
| 20260506145544 | 7 | 196 | 4.8 | 14.5 | 0.03 | 0.00 | 0.03 | 89 | 1010.4 |
| 20260506145414 | 7 | 199 | 4.8 | 14.5 | 0.03 | 0.00 | 0.03 | 91 | 1010.4 |
| 20260506144834 | 7 | 177 | 4.8 | 11.3 | 0.05 | 0.00 | 0.03 | 91 | 1010.2 |
| 20260506144829 | 7 | 183 | 4.8 | 11.3 | 0.05 | 0.00 | 0.03 | 90 | 1010.1 |
| 20260506144713 | 7 | 189 | 4.8 | 8.0 | 0.03 | 0.00 | 0.03 | 91 | 1010.2 |
| 20260506144429 | 7 | 212 | 4.8 | 11.3 | 0.05 | 0.00 | 0.03 | 90 | 1010.2 |
| 20260506144424 | 7 | 198 | 6.4 | 11.3 | 0.05 | 0.00 | 0.03 | 90 | 1010.2 |
| 20260506142042 | 6 | 198 | 3.2 | 9.7 | 0.05 | 0.00 | 0.03 | 90 | 1010.2 |
| 20260506141848 | 7 | 197 | 4.8 | 9.7 | 0.03 | 0.00 | 0.03 | 89 | 1010.3 |
| 20260506141839 | 6 | 175 | 3.2 | 9.7 | 0.03 | 0.00 | 0.00 | 89 | 1010.3 |
| 20260506141828 | 7 | 192 | 4.8 | 9.7 | 0.05 | 0.00 | 0.03 | 90 | 1010.2 |
| 20260506141823 | 7 | 187 | 3.2 | 9.7 | 0.05 | 0.00 | 0.03 | 89 | 1010.2 |
| 20260506141709 | 6 | 244 | 4.8 | 9.7 | 0.05 | 0.00 | 0.03 | 89 | 1010.3 |
| 20260506135039 | 6 | 187 | 3.2 | 9.7 | 0.03 | 0.00 | 0.00 | 88 | 1010.3 |
| 20260506134542 | 6 | 179 | 4.8 | 9.7 | 0.03 | 0.00 | 0.00 | 88 | 1010.3 |
| 20260506134423 | 7 | 191 | 3.2 | 9.7 | 0.00 | 0.00 | 0.00 | 88 | 1010.1 |
| 20260506133540 | 6 | 208 | 1.6 | 6.4 | 0.00 | 0.00 | 0.00 | 87 | 1010.2 |
| 20260506133037 | 6 | 203 | 3.2 | 8.0 | 0.00 | 0.00 | 0.00 | 87 | 1010.2 |
| 20260506132541 | 6 | 197 | 4.8 | 9.7 | 0.00 | 0.00 | 0.00 | 87 | 1010.1 |
| 20260506132039 | 6 | 168 | 4.8 | 9.7 | 0.00 | 0.00 | 0.00 | 87 | 1010.0 |
| 20260506131923 | 6 | 206 | 4.8 | 9.7 | 0.00 | 0.00 | 0.00 | 87 | 1010.1 |
| 20260506131039 | 6 | 188 | 4.8 | 14.5 | 0.00 | 0.00 | 0.00 | 87 | 1010.2 |
| 20260506130925 | 6 | 194 | 4.8 | 14.5 | 0.00 | 0.00 | 0.00 | 87 | 1010.1 |
| 20260506130039 | 6 | 170 | 6.4 | 11.3 | 0.00 | 0.00 | 0.00 | 87 | 1010.2 |
| 20260506125541 | 6 | 190 | 6.4 | 17.7 | 0.00 | 0.00 | 0.00 | 87 | 1010.3 |
| 20260506125039 | 6 | 198 | 6.4 | 17.7 | 0.00 | 0.00 | 0.00 | 87 | 1010.2 |
| 20260506124540 | 6 | 180 | 6.4 | 11.3 | 0.00 | 0.00 | 0.00 | 87 | 1009.9 |
| 20260506124039 | 6 | 180 | 6.4 | 12.9 | 0.00 | 0.00 | 0.00 | 87 | 1009.9 |
| 20260506123539 | 7 | 184 | 8.0 | 12.9 | 0.00 | 0.00 | 0.00 | 88 | 1010.0 |
| 20260506123038 | 7 | 186 | 6.4 | 14.5 | 0.00 | 0.00 | 0.00 | 88 | 1010.0 |
| 20260506122924 | 7 | 182 | 6.4 | 12.9 | 0.00 | 0.00 | 0.00 | 87 | 1010.0 |
| 20260506122743 | 7 | 182 | 6.4 | 14.5 | 0.00 | 0.00 | 0.00 | 87 | 1010.1 |
| 20260506121541 | 7 | 193 | 6.4 | 14.5 | 0.00 | 0.00 | 0.00 | 87 | 1009.9 |
| 20260506121417 | 7 | 189 | 8.0 | 14.5 | 0.00 | 0.00 | 0.00 | 87 | 1010.0 |
| 20260506120539 | 7 | 184 | 6.4 | 17.7 | 0.00 | 0.00 | 0.00 | 87 | 1010.1 |
| 20260506120038 | 7 | 173 | 6.4 | 0.0 | 0.00 | 0.00 | 0.00 | 87 | 1010.0 |
| 20260506115547 | 7 | 191 | 4.8 | 12.9 | 0.00 | 0.00 | 0.00 | 87 | 1010.0 |
| 20260506115243 | 7 | 194 | 6.4 | 12.9 | 0.00 | 0.00 | 0.00 | 89 | 1007.2 |
| 20260506115052 | 7 | 171 | 6.4 | 9.7 | 0.00 | 0.00 | 0.00 | 90 | 1007.2 |
| 20260506114551 | 7 | 153 | 6.4 | 12.9 | 0.00 | 0.00 | 0.00 | 90 | 1007.1 |
| 20260506114051 | 7 | 192 | 6.4 | 12.9 | 0.00 | 0.00 | 0.00 | 90 | 1007.2 |
| 20260506113242 | 7 | 178 | 6.4 | 8.0 | 0.00 | 0.00 | 0.00 | 90 | 1007.2 |
| 20260506113025 | 7 | 176 | 6.4 | 8.0 | 0.00 | 0.00 | 0.00 | 90 | 1007.2 |
| 20260506112547 | 7 | 184 | 4.8 | 8.0 | 0.00 | 0.00 | 0.00 | 87 | 1009.9 |
| 20260506112357 | -17 | 0.0 | 0.0 | 0.00 | 0.00 | 0.00 | |||
| 20260506112349 | 7 | 158 | 4.8 | 0.0 | 0.00 | 0.00 | 0.00 | 90 | 1007.2 |
| 20260506111612 | -17 | 0.0 | 0.0 | 0.00 | 0.00 | 0.00 | |||
| 20260506111044 | -17 | 0.0 | 0.0 | 0.00 | 0.00 | 0.00 | |||
| 20260506111040 | -17 | 0.0 | 0.0 | 0.00 | 0.00 | 0.00 | |||
| 20260506110505 | -17 | 0.0 | 0.0 | 0.00 | 0.00 | 0.00 | |||
| 20260506105510 | -17 | 0.0 | 0.0 | 0.00 | 0.00 | 0.00 | |||
| 20260506104934 | -17 | 0.0 | 0.0 | 0.00 | 0.00 | 0.00 | |||
| 20260506104437 | -17 | 0.0 | 0.0 | 0.00 | 0.00 | 0.00 | |||
| 20260506103905 | -17 | 0.0 | 0.0 | 0.00 | 0.00 | 0.00 | |||
| 20260506103410 | -17 | 0.0 | 0.0 | 0.00 | 0.00 | 0.00 | |||
| 20260506103335 | -17 | 0.0 | 0.0 | 0.00 | 0.00 | 0.00 | |||
| 20260506102338 | -17 | 0.0 | 0.0 | 0.00 | 0.00 | 0.00 | |||
| 20260506101806 | -17 | 0.0 | 0.0 | 0.00 | 0.00 | 0.00 | |||
| 20260506101308 | -17 | 0.0 | 0.0 | 0.00 | 0.00 | 0.00 | |||
| 20260506100733 | -17 | 0.0 | 0.0 | 0.00 | 0.00 | 0.00 | |||
| 20260506100237 | -17 | 0.0 | 0.0 | 0.00 | 0.00 | 0.00 | |||
| 20260506095708 | -17 | 0.0 | 0.0 | 0.00 | 0.00 | 0.00 | |||
| 20260506095212 | -17 | 0.0 | 0.0 | 0.00 | 0.00 | 0.00 | |||
| 20260506094607 | -17 | 0.0 | 0.0 | 0.00 | 0.00 | 0.00 | |||
| 20260506094337 | -17 | 0.0 | 0.0 | 0.00 | 0.00 | 0.00 | |||
| 20260506093534 | -17 | 0.0 | 0.0 | 0.00 | 0.00 | 0.00 | |||
| 20260506093037 | -17 | 0.0 | 0.0 | 0.00 | 0.00 | 0.00 | |||
| 20260506092505 | -17 | 0.0 | 0.0 | 0.00 | 0.00 | 0.00 | |||
| 20260506092012 | -17 | 0.0 | 0.0 | 0.00 | 0.00 | 0.00 | |||
| 20260506091434 | -17 | 0.0 | 0.0 | 0.00 | 0.00 | 0.00 | |||
| 20260506090937 | -17 | 0.0 | 0.0 | 0.00 | 0.00 | 0.00 | |||
| 20260506090405 | -17 | 0.0 | 0.0 | 0.00 | 0.00 | 0.00 | |||
| 20260506085911 | -17 | 0.0 | 0.0 | 0.00 | 0.00 | 0.00 | |||
| 20260506085334 | -17 | 0.0 | 0.0 | 0.00 | 0.00 | 0.00 | |||
| 20260506085139 | -17 | 0.0 | 0.0 | 0.00 | 0.00 | 0.00 | |||
| 20260506084306 | -17 | 0.0 | 0.0 | 0.00 | 0.00 | 0.00 | |||
| 20260506084036 | -17 | 0.0 | 0.0 | 0.00 | 0.00 | 0.00 | |||
| 20260506083234 | -17 | 0.0 | 0.0 | 0.00 | 0.00 | 0.00 | |||
| 20260506082738 | -17 | 0.0 | 0.0 | 0.00 | 0.00 | 0.00 | |||
| 20260506082208 | -17 | 0.0 | 0.0 | 0.00 | 0.00 | 0.00 | |||
| 20260506081713 | -17 | 0.0 | 0.0 | 0.00 | 0.00 | 0.00 | |||
| 20260506081106 | -17 | 0.0 | 0.0 | 0.00 | 0.00 | 0.00 | |||
| 20260506080609 | -17 | 0.0 | 0.0 | 0.00 | 0.00 | 0.00 | |||
| 20260506073437 | -17 | 0.0 | 0.0 | 0.00 | 0.00 | 0.00 | |||
| 20260506073144 | -17 | 0.0 | 0.0 | 0.00 | 0.00 | 0.00 | |||
| 20260506072640 | -17 | 0.0 | 0.0 | 0.00 | 0.00 | 0.00 | |||
| 20260506071833 | -17 | 0.0 | 0.0 | 0.00 | 0.00 | 0.00 | |||
| 20260506071336 | -17 | 0.0 | 0.0 | 0.00 | 0.00 | 0.00 | |||
| 20260506070806 | -17 | 0.0 | 0.0 | 0.00 | 0.00 | 0.00 | |||
| 20260506070309 | -17 | 0.0 | 0.0 | 0.00 | 0.00 | 0.00 | |||
| 20260506062038 | -17 | 0.0 | 0.0 | 0.00 | 0.00 | 0.00 | |||
| 20260506061505 | -17 | 0.0 | 0.0 | 0.00 | 0.00 | 0.00 | |||
| 20260506061012 | -17 | 0.0 | 0.0 | 0.00 | 0.00 | 0.00 | |||
| 20260506060435 | -17 | 0.0 | 0.0 | 0.00 | 0.00 | 0.00 | |||
| 20260506051136 | -17 | 0.0 | 0.0 | 0.00 | 0.00 | 0.00 | |||
| 20260506050640 | -17 | 0.0 | 0.0 | 0.00 | 0.00 | 0.00 | |||
| 20260506050106 | -17 | 0.0 | 0.0 | 0.00 | 0.00 | 0.00 | |||
| 20260506045033 | -17 | 0.0 | 0.0 | 0.00 | 0.00 | 0.00 | |||
| 20260506044537 | -17 | 0.0 | 0.0 | 0.00 | 0.00 | 0.00 | |||
| 20260506044007 | -17 | 0.0 | 0.0 | 0.00 | 0.00 | 0.00 | |||
| 20260506043511 | -17 | 0.0 | 0.0 | 0.00 | 0.00 | 0.00 | |||
| 20260506042934 | -17 | 0.0 | 0.0 | 0.00 | 0.00 | 0.00 | |||
| 20260506042438 | -17 | 0.0 | 0.0 | 0.00 | 0.00 | 0.00 | |||
| 20260506041906 | -17 | 0.0 | 0.0 | 0.00 | 0.00 | 0.00 | |||
| 20260506041419 | -17 | 0.0 | 0.0 | 0.00 | 0.00 | 0.00 | |||
| 20260506041149 | -17 | 0.0 | 0.0 | 0.00 | 0.00 | 0.00 | |||
| 20260506035805 | -17 | 0.0 | 0.0 | 0.00 | 0.00 | 0.00 | |||
| 20260506035309 | -17 | 0.0 | 0.0 | 0.00 | 0.00 | 0.00 | |||
| 20260506034708 | -17 | 0.0 | 0.0 | 0.00 | 0.00 | 0.00 | |||
| 20260506034212 | -17 | 0.0 | 0.0 | 0.00 | 0.00 | 0.00 | |||
| 20260506033640 | -17 | 0.0 | 0.0 | 0.00 | 0.00 | 0.00 | |||
| 20260506033139 | -17 | 0.0 | 0.0 | 0.00 | 0.00 | 0.00 | |||
| 20260506032606 | -17 | 0.0 | 0.0 | 0.00 | 0.00 | 0.00 | |||
| 20260506032109 | -17 | 0.0 | 0.0 | 0.00 | 0.00 | 0.00 | |||
| 20260506031534 | -17 | 0.0 | 0.0 | 0.00 | 0.00 | 0.00 | |||
| 20260506031043 | -17 | 0.0 | 0.0 | 0.00 | 0.00 | 0.00 | |||
| 20260506030506 | -17 | 0.0 | 0.0 | 0.00 | 0.00 | 0.00 | |||
| 20260506030016 | -17 | 0.0 | 0.0 | 0.00 | 0.00 | 0.00 | |||
| 20260506025433 | -17 | 0.0 | 0.0 | 0.00 | 0.00 | 0.00 | |||
| 20260506024938 | -17 | 0.0 | 0.0 | 0.00 | 0.00 | 0.00 | |||
| 20260506024812 | 10 | 254 | 1.6 | 6.4 | 0.00 | 0.00 | 0.00 | 69 | 1008.1 |
| 20260506024046 | 10 | 254 | 1.6 | 6.4 | 0.00 | 0.00 | 0.00 | 69 | 1008.1 |
| 20260506023317 | 10 | 248 | 1.6 | 6.4 | 0.00 | 0.00 | 0.00 | 68 | 1008.2 |
| 20260506022802 | 10 | 248 | 1.6 | 6.4 | 0.00 | 0.00 | 0.00 | 69 | 1008.2 |
| 20260506022305 | 10 | 248 | 1.6 | 6.4 | 0.00 | 0.00 | 0.00 | 70 | 1008.2 |
| 20260506021856 | 11 | 257 | 3.2 | 9.7 | 0.00 | 0.00 | 0.00 | 71 | 1008.2 |
| 20260506021844 | 10 | 254 | 3.2 | 9.7 | 0.00 | 0.00 | 0.00 | 71 | 1008.2 |
| 20260506021824 | 10 | 240 | 1.6 | 6.4 | 0.00 | 0.00 | 0.00 | 71 | 1008.2 |
| 20260506020304 | 11 | 259 | 3.2 | 12.9 | 0.00 | 0.00 | 0.00 | 72 | 1008.3 |
| 20260506015803 | 11 | 241 | 3.2 | 12.9 | 0.00 | 0.00 | 0.00 | 72 | 1008.3 |
| 20260506015333 | 11 | 257 | 1.6 | 9.7 | 0.00 | 0.00 | 0.00 | 72 | 1008.1 |
| 20260506014925 | 11 | 246 | 1.6 | 6.4 | 0.00 | 0.00 | 0.00 | 72 | 1008.1 |
| 20260506014138 | 11 | 238 | 3.2 | 11.3 | 0.00 | 0.00 | 0.00 | 71 | 1007.9 |
| 20260506013305 | 11 | 258 | 3.2 | 11.3 | 0.00 | 0.00 | 0.00 | 71 | 1008.1 |
| 20260506012802 | 11 | 249 | 4.8 | 11.3 | 0.00 | 0.00 | 0.00 | 72 | 1008.1 |
| 20260506012639 | 11 | 261 | 4.8 | 12.9 | 0.00 | 0.00 | 0.00 | 72 | 1008.0 |
| 20260506011809 | 11 | 243 | 3.2 | 12.9 | 0.00 | 0.00 | 0.00 | 72 | 1007.9 |
| 20260506011639 | 11 | 250 | 3.2 | 9.7 | 0.00 | 0.00 | 0.00 | 72 | 1007.5 |
| 20260506010805 | 11 | 259 | 3.2 | 8.0 | 0.00 | 0.00 | 0.00 | 73 | 1007.5 |
| 20260506010304 | 11 | 234 | 3.2 | 12.9 | 0.00 | 0.00 | 0.00 | 74 | 1007.4 |
| 20260506010149 | 11 | 264 | 4.8 | 12.9 | 0.00 | 0.00 | 0.00 | 74 | 1007.3 |
| 20260506005638 | 11 | 259 | 3.2 | 9.7 | 0.00 | 0.00 | 0.00 | 74 | 1007.1 |
| 20260506005133 | 11 | 243 | 3.2 | 8.0 | 0.00 | 0.00 | 0.00 | 74 | 1007.1 |
| 20260506004628 | 12 | 225 | 4.8 | 12.9 | 0.00 | 0.00 | 0.00 | 74 | 1006.9 |
| 20260506003802 | 12 | 282 | 6.4 | 17.7 | 0.00 | 0.00 | 0.00 | 73 | 1006.9 |
| 20260506003303 | 12 | 248 | 4.8 | 17.7 | 0.00 | 0.00 | 0.00 | 73 | 1006.8 |
| 20260506002802 | 12 | 238 | 3.2 | 9.7 | 0.00 | 0.00 | 0.00 | 73 | 1006.6 |
| 20260506002301 | 12 | 244 | 3.2 | 11.3 | 0.00 | 0.00 | 0.00 | 73 | 1006.5 |
| 20260506001802 | 12 | 269 | 3.2 | 11.3 | 0.00 | 0.00 | 0.00 | 73 | 1006.4 |
| 20260506001640 | 12 | 241 | 3.2 | 8.0 | 0.00 | 0.00 | 0.00 | 72 | 1006.3 |